Starlink 11112

operational
NORAD ID: 60115 Int'l Des: 2024-118 Owner: SPXS Country: US Constellation: starlink
LEOCIRCULAR

Über Starlink 11112

Beschreibung wird geladen...

Live-Position

3D-Globus wird geladen...

Nächste Überflüge

Höhenverlauf

Altitude vs Time

uPlot chart will show altitude changes over time

Zweizeiliger Elementsatz

1 60115U 24118C 25306.24324182 .00005884 00000-0 53430-4 0 9995
2 60115 53.1587 129.7335 0000808 80.4948 279.6161 15.69691777 77973
Epoch: 2. Nov. 2025 • Age: 13 hours

Aktueller Status

Höhe 365.2 km
Geschwindigkeit 7.70 km/s
Subsatellitenpunkt 50.70°N, 78.34°W
Startdatum 24. Juni 2024
Alter 1.3 years
Typ internet

Technische Details

Klassifizierung Payload
Masse 960.00 kg
Trockenmasse 910.00 kg
Gesamtmasse 960.00 kg
Länge 0.30 m
Durchmesser 4.10 m
Spannweite 29.00 m
Form Box + pan
Hersteller SPXS
Bus-Typ Starlink V2MD
Phasenstatus In Orbit
Besitzer/Staat SPXS/US

Große Konstellationen

Loading constellations...